| time (UTC) | temp F | wind direction | speed knots | gust knots | rain 1hr in | rain 24hr in | rain mn in | humidity % | barometer mb |
| 20260510022510 | 52 | 0 | 0.0 | 0.0 | 0.00 | 0.02 | 0.02 | 90 | 1010.7 |
| 20260510022011 | 52 | 0 | 0.0 | 0.0 | 0.00 | 0.02 | 0.02 | 90 | 1010.7 |
| 20260510021511 | 52 | 0 | 0.0 | 0.0 | 0.00 | 0.02 | 0.02 | 89 | 1010.7 |
| 20260510021011 | 52 | 0 | 0.0 | 0.0 | 0.00 | 0.02 | 0.02 | 89 | 1010.6 |
| 20260510020511 | 52 | 95 | 0.0 | 0.9 | 0.00 | 0.02 | 0.02 | 89 | 1010.6 |
| 20260510020010 | 52 | 95 | 0.0 | 0.9 | 0.00 | 0.02 | 0.02 | 89 | 1010.5 |
| 20260510015511 | 52 | 95 | 0.0 | 0.9 | 0.00 | 0.02 | 0.02 | 89 | 1010.6 |
| 20260510015011 | 52 | 0 | 0.0 | 0.0 | 0.00 | 0.02 | 0.02 | 88 | 1010.6 |
| 20260510014512 | 53 | 0 | 0.0 | 0.0 | 0.00 | 0.02 | 0.02 | 88 | 1010.6 |
| 20260510014011 | 53 | 0 | 0.0 | 0.0 | 0.00 | 0.02 | 0.02 | 88 | 1010.6 |
| 20260510013511 | 53 | 0 | 0.0 | 0.0 | 0.00 | 0.02 | 0.02 | 88 | 1010.6 |
| 20260510013011 | 53 | 0 | 0.0 | 0.0 | 0.00 | 0.02 | 0.02 | 88 | 1010.6 |
| 20260510012511 | 53 | 0 | 0.0 | 0.0 | 0.00 | 0.02 | 0.02 | 88 | 1010.6 |
| 20260510012011 | 54 | 95 | 0.0 | 0.9 | 0.00 | 0.02 | 0.02 | 88 | 1010.6 |
| 20260510011511 | 54 | 95 | 0.0 | 0.9 | 0.00 | 0.02 | 0.02 | 88 | 1010.6 |
| 20260510011011 | 54 | 0 | 0.0 | 0.0 | 0.00 | 0.02 | 0.02 | 87 | 1010.5 |
| 20260510010511 | 54 | 0 | 0.0 | 0.0 | 0.00 | 0.02 | 0.02 | 87 | 1010.4 |
| 20260510010011 | 54 | 0 | 0.0 | 0.0 | 0.00 | 0.02 | 0.02 | 86 | 1010.3 |
| 20260510005510 | 54 | 95 | 0.0 | 0.9 | 0.00 | 0.02 | 0.02 | 87 | 1010.3 |
| 20260510005011 | 55 | 95 | 0.0 | 0.9 | 0.00 | 0.02 | 0.02 | 86 | 1010.3 |
| 20260510004511 | 55 | 95 | 0.0 | 0.9 | 0.00 | 0.02 | 0.02 | 86 | 1010.4 |
| 20260510003511 | 55 | 0 | 0.0 | 0.0 | 0.00 | 0.02 | 0.02 | 85 | 1010.4 |
| 20260510003011 | 56 | 0 | 0.0 | 0.0 | 0.00 | 0.02 | 0.02 | 85 | 1010.3 |
| 20260510002511 | 56 | 0 | 0.0 | 0.0 | 0.00 | 0.02 | 0.02 | 84 | 1010.3 |
| 20260510002010 | 56 | 0 | 0.0 | 0.0 | 0.00 | 0.02 | 0.02 | 84 | 1010.2 |
| 20260510001511 | 56 | 94 | 0.0 | 0.9 | 0.00 | 0.02 | 0.02 | 84 | 1010.2 |
| 20260510000510 | 57 | 95 | 0.0 | 1.7 | 0.00 | 0.02 | 0.02 | 82 | 1010.2 |
| 20260510000011 | 58 | 95 | 0.0 | 0.9 | 0.00 | 0.02 | 0.02 | 82 | 1010.3 |
| 20260509235510 | 58 | 95 | 0.0 | 0.9 | 0.00 | 0.02 | 0.02 | 81 | 1010.2 |
| 20260509235011 | 58 | 82 | 0.0 | 2.6 | 0.00 | 0.02 | 0.02 | 81 | 1010.3 |
| 20260509234511 | 58 | 64 | 0.9 | 2.6 | 0.00 | 0.02 | 0.02 | 80 | 1010.2 |
| 20260509234012 | 59 | 53 | 0.9 | 1.7 | 0.00 | 0.02 | 0.02 | 80 | 1010.1 |
| 20260509233510 | 59 | 62 | 0.9 | 2.6 | 0.00 | 0.02 | 0.02 | 79 | 1010.1 |
| 20260509232010 | 59 | 78 | 1.7 | 4.3 | 0.00 | 0.02 | 0.02 | 79 | 1009.8 |
| 20260509231511 | 59 | 80 | 2.6 | 4.3 | 0.00 | 0.02 | 0.02 | 79 | 1009.7 |
| 20260509230511 | 59 | 80 | 1.7 | 3.5 | 0.00 | 0.02 | 0.02 | 80 | 1009.8 |
| 20260509230010 | 59 | 68 | 1.7 | 3.5 | 0.00 | 0.02 | 0.02 | 80 | 1009.9 |
| 20260509225512 | 59 | 47 | 1.7 | 5.2 | 0.00 | 0.02 | 0.02 | 80 | 1009.9 |
| 20260509225011 | 59 | 46 | 1.7 | 5.2 | 0.00 | 0.02 | 0.02 | 80 | 1010.0 |
| 20260509224510 | 59 | 45 | 1.7 | 4.3 | 0.00 | 0.02 | 0.02 | 79 | 1010.1 |
| 20260509224011 | 59 | 27 | 1.7 | 3.5 | 0.00 | 0.02 | 0.02 | 80 | 1010.1 |
| 20260509223511 | 59 | 27 | 1.7 | 3.5 | 0.00 | 0.02 | 0.02 | 81 | 1010.1 |
| 20260509223011 | 59 | 50 | 1.7 | 3.5 | 0.00 | 0.02 | 0.02 | 80 | 1010.2 |
| 20260509222511 | 59 | 68 | 1.7 | 4.3 | 0.00 | 0.02 | 0.02 | 80 | 1010.1 |
| 20260509222011 | 59 | 50 | 1.7 | 5.2 | 0.00 | 0.02 | 0.02 | 80 | 1010.0 |
| 20260509221511 | 59 | 33 | 1.7 | 5.2 | 0.00 | 0.02 | 0.02 | 79 | 1010.0 |
| 20260509221011 | 59 | 45 | 1.7 | 5.2 | 0.00 | 0.02 | 0.02 | 79 | 1010.2 |
| 20260509220011 | 59 | 19 | 3.5 | 7.0 | 0.00 | 0.02 | 0.02 | 78 | 1010.4 |
| 20260509215511 | 60 | 25 | 3.5 | 7.0 | 0.00 | 0.02 | 0.02 | 77 | 1010.5 |
| 20260509214513 | 60 | 18 | 2.6 | 7.0 | 0.00 | 0.02 | 0.02 | 77 | 1010.4 |
| 20260509214011 | 60 | 8 | 4.3 | 8.7 | 0.00 | 0.02 | 0.02 | 75 | 1010.2 |
| 20260509213511 | 61 | 359 | 5.2 | 8.7 | 0.00 | 0.02 | 0.02 | 73 | 1010.5 |
| 20260509212510 | 61 | 346 | 3.5 | 8.7 | 0.00 | 0.02 | 0.02 | 70 | 1010.7 |
| 20260509212011 | 61 | 353 | 2.6 | 5.2 | 0.00 | 0.02 | 0.02 | 69 | 1010.5 |
| 20260509211510 | 62 | 351 | 3.5 | 6.1 | 0.00 | 0.02 | 0.02 | 69 | 1010.4 |
| 20260509211012 | 62 | 354 | 2.6 | 6.1 | 0.00 | 0.02 | 0.02 | 70 | 1010.4 |
| 20260509210511 | 62 | 21 | 1.7 | 4.3 | 0.00 | 0.02 | 0.02 | 70 | 1010.3 |
| 20260509210011 | 62 | 28 | 1.7 | 5.2 | 0.00 | 0.02 | 0.02 | 70 | 1010.3 |
| 20260509205511 | 62 | 14 | 2.6 | 7.0 | 0.00 | 0.02 | 0.02 | 70 | 1010.4 |
| 20260509205010 | 62 | 352 | 2.6 | 7.0 | 0.00 | 0.02 | 0.02 | 71 | 1010.3 |